Total_Precipitation_Accumulation
0.62 0.66 0.71 0.70 0.75 0.87 0.96 0.96 0.97 0.95 0.92 0.91 0.88 0.83 0.79 0.74 0.70 0.67 0.64 0.65 0.67 0.65 0.66 0.70 0.71 0.71 0.74 0.75 0.79 0.84 0.90 1.02 1.02 0.74 0.59 0.55 0.53 0.48 0.44 0.42 0.37 0.36 0.35
0.63 0.61 0.66 0.67 0.66 0.71 0.80 0.89 0.92 0.96 0.90 0.87 0.83 0.80 0.75 0.69 0.65 0.63 0.60 0.59 0.59 0.59 0.59 0.61 0.63 0.65 0.68 0.71 0.74 0.74 0.75 0.79 0.87 0.77 0.57 0.50 0.45 0.41 0.38 0.36 0.34 0.32 0.29
0.55 0.56 0.57 0.56 0.58 0.62 0.66 0.74 0.78 0.85 0.83 0.80 0.81 0.77 0.70 0.66 0.64 0.61 0.59 0.57 0.56 0.54 0.55 0.59 0.61 0.65 0.69 0.71 0.72 0.72 0.71 0.73 0.79 0.80 0.60 0.48 0.44 0.40 0.39 0.34 0.33 0.33 0.30
0.48 0.54 0.55 0.53 0.55 0.59 0.64 0.67 0.70 0.73 0.77 0.76 0.76 0.78 0.76 0.71 0.69 0.66 0.64 0.62 0.62 0.61 0.61 0.63 0.65 0.64 0.64 0.63 0.65 0.64 0.66 0.68 0.70 0.74 0.68 0.56 0.47 0.40 0.40 0.37 0.35 0.31 0.32
0.45 0.53 0.54 0.54 0.58 0.65 0.67 0.65 0.65 0.65 0.69 0.70 0.71 0.74 0.76 0.75 0.74 0.74 0.73 0.74 0.76 0.77 0.74 0.71 0.68 0.67 0.63 0.59 0.59 0.61 0.63 0.65 0.70 0.77 0.72 0.59 0.48 0.42 0.38 0.36 0.41 0.40 0.38
0.35 0.40 0.44 0.48 0.57 0.63 0.65 0.63 0.62 0.63 0.66 0.69 0.70 0.71 0.76 0.78 0.89 0.86 0.79 0.79 0.81 0.78 0.74 0.68 0.63 0.63 0.61 0.61 0.59 0.59 0.64 0.72 0.78 0.82 0.76 0.64 0.48 0.44 0.47 0.55 0.63 0.70 0.62
0.31 0.31 0.35 0.44 0.51 0.55 0.60 0.65 0.66 0.67 0.73 0.82 0.83 0.83 0.87 0.94 0.99 0.85 0.78 0.72 0.71 0.69 0.63 0.58 0.54 0.51 0.53 0.49 0.50 0.55 0.58 0.65 0.71 0.72 0.64 0.49 0.42 0.42 0.56 0.69 0.73 0.76 0.67
0.36 0.37 0.37 0.41 0.47 0.54 0.57 0.63 0.70 0.72 0.81 0.91 0.96 0.92 0.92 0.95 0.96 0.85 0.76 0.63 0.59 0.56 0.52 0.49 0.47 0.44 0.44 0.48 0.54 0.58 0.51 0.46 0.46 0.44 0.41 0.39 0.41 0.46 0.62 0.81 0.88 0.89 0.74
0.33 0.37 0.36 0.39 0.45 0.53 0.62 0.69 0.73 0.76 0.81 0.87 0.88 0.83 0.80 0.81 0.79 0.69 0.68 0.60 0.57 0.52 0.47 0.46 0.46 0.43 0.47 0.58 0.63 0.62 0.48 0.36 0.36 0.40 0.44 0.43 0.45 0.48 0.54 0.74 0.93 1.02 0.85
0.33 0.37 0.38 0.40 0.45 0.51 0.59 0.68 0.74 0.74 0.73 0.72 0.71 0.66 0.63 0.62 0.65 0.60 0.60 0.57 0.57 0.52 0.48 0.46 0.49 0.48 0.56 0.67 0.63 0.60 0.49 0.37 0.36 0.36 0.36 0.35 0.32 0.32 0.41 0.57 0.94 1.31 1.09
0.37 0.41 0.43 0.44 0.48 0.52 0.57 0.59 0.61 0.60 0.56 0.53 0.51 0.47 0.46 0.47 0.51 0.49 0.50 0.51 0.52 0.52 0.50 0.45 0.45 0.58 0.66 0.68 0.60 0.45 0.45 0.52 0.46 0.36 0.34 0.32 0.30 0.29 0.31 0.37 0.61 1.21 1.50
0.39 0.42 0.45 0.45 0.44 0.43 0.44 0.46 0.45 0.44 0.43 0.40 0.40 0.39 0.39 0.41 0.44 0.47 0.49 0.54 0.57 0.51 0.47 0.42 0.44 0.58 0.59 0.53 0.47 0.45 0.51 0.47 0.35 0.33 0.34 0.33 0.32 0.34 0.36 0.41 0.46 0.62 0.94
0.36 0.37 0.37 0.36 0.35 0.35 0.34 0.34 0.35 0.38 0.39 0.40 0.39 0.38 0.37 0.38 0.41 0.49 0.50 0.55 0.58 0.52 0.47 0.51 0.54 0.52 0.46 0.42 0.45 0.47 0.44 0.38 0.40 0.45 0.42 0.37 0.37 0.43 0.48 0.50 0.50 0.51 0.57
0.28 0.27 0.26 0.25 0.26 0.26 0.26 0.27 0.29 0.32 0.33 0.34 0.36 0.35 0.34 0.35 0.35 0.39 0.47 0.51 0.54 0.51 0.52 0.54 0.50 0.46 0.43 0.43 0.45 0.43 0.37 0.38 0.49 0.55 0.49 0.42 0.41 0.47 0.51 0.58 0.69 0.69 0.74
0.20 0.19 0.18 0.18 0.22 0.25 0.25 0.26 0.29 0.30 0.34 0.34 0.34 0.34 0.35 0.36 0.37 0.48 0.52 0.51 0.55 0.56 0.53 0.44 0.41 0.43 0.42 0.40 0.38 0.39 0.39 0.40 0.44 0.45 0.49 0.50 0.49 0.56 0.63 0.73 0.88 0.94 0.96
0.18 0.18 0.18 0.15 0.18 0.25 0.28 0.29 0.33 0.35 0.39 0.42 0.42 0.38 0.36 0.38 0.43 0.48 0.51 0.55 0.59 0.58 0.49 0.40 0.37 0.37 0.39 0.39 0.38 0.38 0.39 0.41 0.48 0.56 0.58 0.60 0.66 0.73 0.81 0.86 0.98 1.05 0.98
0.18 0.19 0.20 0.19 0.21 0.23 0.25 0.26 0.28 0.29 0.33 0.38 0.40 0.40 0.39 0.40 0.42 0.45 0.50 0.53 0.49 0.48 0.40 0.37 0.37 0.36 0.37 0.39 0.42 0.44 0.45 0.44 0.57 0.71 0.77 0.79 0.85 0.88 0.93 0.98 0.98 0.93 0.80
0.18 0.20 0.19 0.20 0.23 0.24 0.26 0.27 0.26 0.25 0.25 0.27 0.31 0.36 0.39 0.40 0.41 0.44 0.50 0.47 0.40 0.40 0.37 0.35 0.34 0.35 0.38 0.42 0.46 0.53 0.57 0.56 0.65 0.76 0.82 0.86 0.92 1.00 1.02 0.98 0.89 0.81 0.71
0.16 0.17 0.17 0.19 0.21 0.24 0.25 0.28 0.27 0.25 0.24 0.23 0.23 0.28 0.36 0.40 0.42 0.44 0.44 0.40 0.38 0.37 0.36 0.36 0.35 0.36 0.41 0.45 0.50 0.58 0.66 0.75 0.80 0.91 0.93 0.94 0.98 1.09 1.04 0.89 0.75 0.60 0.51
0.14 0.17 0.18 0.18 0.19 0.21 0.23 0.25 0.27 0.24 0.24 0.23 0.21 0.22 0.29 0.37 0.37 0.34 0.35 0.35 0.38 0.40 0.38 0.37 0.37 0.39 0.44 0.49 0.54 0.62 0.72 0.78 0.85 0.92 0.95 0.95 0.98 1.03 0.95 0.72 0.53 0.45 0.37
0.14 0.16 0.19 0.18 0.18 0.19 0.21 0.23 0.25 0.27 0.26 0.24 0.23 0.26 0.36 0.37 0.33 0.31 0.33 0.35 0.36 0.39 0.41 0.43 0.42 0.43 0.47 0.53 0.59 0.65 0.75 0.82 0.89 0.98 0.99 0.93 0.88 0.79 0.60 0.50 0.42 0.40 0.39
0.15 0.16 0.16 0.17 0.17 0.19 0.22 0.22 0.23 0.24 0.25 0.25 0.23 0.27 0.36 0.32 0.27 0.27 0.30 0.30 0.30 0.33 0.38 0.45 0.46 0.45 0.57 0.74 0.89 0.95 0.90 0.86 0.88 0.98 0.97 0.83 0.71 0.58 0.49 0.47 0.42 0.41 0.40
0.15 0.16 0.17 0.18 0.19 0.22 0.24 0.21 0.21 0.22 0.23 0.24 0.24 0.24 0.27 0.28 0.27 0.26 0.26 0.25 0.26 0.28 0.32 0.39 0.46 0.44 0.49 0.70 0.95 1.26 1.34 1.15 1.04 1.07 1.06 0.87 0.68 0.58 0.56 0.54 0.46 0.44 0.38
0.15 0.17 0.19 0.20 0.21 0.22 0.22 0.22 0.22 0.22 0.23 0.23 0.24 0.24 0.24 0.26 0.25 0.24 0.24 0.24 0.25 0.26 0.28 0.35 0.43 0.46 0.51 0.70 0.90 1.06 1.19 1.28 1.39 1.33 1.20 1.11 0.87 0.69 0.62 0.56 0.46 0.39 0.37
0.18 0.19 0.20 0.21 0.22 0.22 0.23 0.24 0.24 0.24 0.25 0.25 0.24 0.24 0.24 0.25 0.24 0.23 0.22 0.24 0.25 0.26 0.25 0.30 0.40 0.48 0.56 0.70 0.87 0.99 1.05 1.16 1.23 1.16 1.01 0.91 0.77 0.64 0.59 0.54 0.45 0.39 0.37
0.20 0.21 0.23 0.23 0.23 0.22 0.23 0.24 0.25 0.25 0.26 0.26 0.26 0.26 0.25 0.25 0.24 0.23 0.23 0.24 0.26 0.25 0.24 0.26 0.32 0.45 0.57 0.69 0.77 0.90 1.00 0.94 0.75 0.62 0.68 0.73 0.67 0.56 0.52 0.54 0.47 0.43 0.39